Simultaneous Nadir Overpasses (SNOs) Predictions

Prediction of SNOs between GOES-17 and LANDSAT-8 Satellite Orbit:

Table of predicted SNOs for the next 14.0 days since TLE Epoch: 3/11/2023
Index Date Time (GOES-17) GOES-17 Lat,Lon LANDSAT-8 Lat,Lon Distance(km) Time Diff (sec)
1 03/11/2023 04:54:51 -0.00,-104.72 0.78,-101.08 413.42 80
2 03/11/2023 17:16:06 -0.00,-104.75 0.29,-106.25 169.31 80
3 03/13/2023 17:06:34 -0.00,-104.76 -0.31,-103.29 167.09 80
4 03/14/2023 05:27:58 0.01,-104.73 -0.80,-108.48 426.89 80
5 03/16/2023 05:15:46 0.01,-104.73 -0.17,-105.52 91.01 80
6 03/18/2023 05:03:34 0.01,-104.73 0.47,-102.57 245.11 80
7 03/18/2023 17:22:09 -0.02,-104.76 0.63,-107.72 337.94 80
8 03/20/2023 17:12:37 -0.01,-104.76 -0.04,-104.78 3.24 80
9 03/22/2023 17:00:23 -0.01,-104.77 -0.62,-101.81 336.57 80
10 03/23/2023 05:21:47 0.02,-104.74 -0.47,-107.00 256.78 80
